This is the latest recevied weather packets stored in our database for station/object KC4BAM. If no packets are shown the sender has not sent any weather packets the latest 10 day(s).
| Time | Temp. | Humidity | Pressure | Rain* | Wind** | Luminosity | Snow |
|---|---|---|---|---|---|---|---|
| 1778017071 | 22.78° C | 55% | 998.4 hPa | 0 mm | - | 320 W/m² | - |
| 1778016768 | 22.78° C | 55% | 998.6 hPa | 0 mm | - | 147 W/m² | - |
| 1778016463 | 22.78° C | 56% | 998.5 hPa | 0 mm | - | 170 W/m² | - |
| 1778016162 | 22.78° C | 56% | 998.4 hPa | 0 mm | - | 141 W/m² | - |
| 1778015858 | 23.33° C | 56% | 998.7 hPa | 0 mm | - | 253 W/m² | - |
| 1778015556 | 23.89° C | 57% | 998.4 hPa | 0 mm | - | 139 W/m² | - |
| 1778015252 | 22.78° C | 58% | 998.6 hPa | 0 mm | - | 253 W/m² | - |
| 1778014948 | 22.78° C | 58% | 998.5 hPa | 0 mm | - | 238 W/m² | - |
| 1778014646 | 22.78° C | 58% | 998.6 hPa | 0 mm | - | 141 W/m² | - |
| 1778014344 | 23.33° C | 58% | 998.8 hPa | 0 mm | - | 121 W/m² | - |
| 1778014040 | 23.33° C | 58% | 998.8 hPa | 0 mm | - | 460 W/m² | - |
| 1778013738 | 23.33° C | 58% | 998.6 hPa | 0 mm | - | 141 W/m² | - |
| 1778013435 | 23.33° C | 58% | 998.8 hPa | 0 mm | - | 185 W/m² | - |
| 1778013132 | 23.33° C | 59% | 998.7 hPa | 0 mm | - | 530 W/m² | - |
| 1778012828 | 23.89° C | 58% | 998.5 hPa | 0 mm | - | 175 W/m² | - |
| 1778012524 | 23.89° C | 57% | 998.5 hPa | 0 mm | - | 337 W/m² | - |
| 1778012220 | 23.33° C | 59% | 998.5 hPa | 0 mm | - | 491 W/m² | - |
| 1778011919 | 22.78° C | 59% | 998.8 hPa | 0 mm | - | 139 W/m² | - |
| 1778011617 | 23.33° C | 58% | 998.7 hPa | 0 mm | - | 147 W/m² | - |
| 1778011313 | 23.33° C | 58% | 998.9 hPa | 0 mm | - | 184 W/m² | - |
| 1778011009 | 22.78° C | 58% | 998.9 hPa | 0 mm | - | 417 W/m² | - |
| 1778010706 | 23.33° C | 58% | 998.9 hPa | 0 mm | - | 351 W/m² | - |
| 1778010404 | 22.78° C | 58% | 999.2 hPa | 0 mm | - | 250 W/m² | - |
| 1778010099 | 22.78° C | 58% | 999.3 hPa | 0 mm | - | 246 W/m² | - |
| 1778009796 | 22.78° C | 57% | 999.3 hPa | 0 mm | - | 182 W/m² | - |
* Rain latest hour (hover to see other rain measurements)
** Current wind speed in m/s (hover to see current wind gust speed)